This is the latest recevied weather packets stored in our database for station/object N6DZK. If no packets are shown the sender has not sent any weather packets the latest 10 day(s).
| Time | Temp. | Humidity | Pressure | Rain* | Wind** | Luminosity | Snow |
|---|---|---|---|---|---|---|---|
| 1778124815 | 18.33° C | 68% | 1018.4 hPa | 0 mm | - | 0 W/m² | - |
| 1778124512 | 18.89° C | 67% | 1018.3 hPa | 0 mm | - | 0 W/m² | - |
| 1778124208 | 18.89° C | 67% | 1018.3 hPa | 0 mm | - | 0 W/m² | - |
| 1778123905 | 18.89° C | 66% | 1018.3 hPa | 0 mm | - | 0 W/m² | - |
| 1778123602 | 18.89° C | 66% | 1018.4 hPa | 0 mm | - | 1 W/m² | - |
| 1778123298 | 18.89° C | 66% | 1018.2 hPa | 0 mm | - | 1 W/m² | - |
| 1778122996 | 19.44° C | 65% | 1018 hPa | 0 mm | - | 3 W/m² | - |
| 1778122692 | 19.44° C | 65% | 1018.1 hPa | 0 mm | - | 5 W/m² | - |
| 1778122390 | 19.44° C | 64% | 1018 hPa | 0 mm | - | 8 W/m² | - |
| 1778122088 | 20° C | 64% | 1017.8 hPa | 0 mm | - | 12 W/m² | - |
| 1778121784 | 20° C | 63% | 1017.7 hPa | 0 mm | - | 16 W/m² | - |
| 1778121480 | 20° C | 62% | 1017.7 hPa | 0 mm | - | 20 W/m² | - |
| 1778121177 | 20.56° C | 61% | 1017.7 hPa | 0 mm | - | 24 W/m² | - |
| 1778120874 | 20.56° C | 61% | 1017.7 hPa | 0 mm | - | 28 W/m² | - |
| 1778120571 | 21.11° C | 60% | 1017.7 hPa | 0 mm | - | 32 W/m² | - |
| 1778120267 | 21.11° C | 60% | 1017.8 hPa | 0 mm | - | 36 W/m² | - |
| 1778119963 | 21.11° C | 59% | 1017.6 hPa | 0 mm | - | 40 W/m² | - |
| 1778119661 | 21.67° C | 58% | 1017.8 hPa | 0 mm | - | 44 W/m² | - |
| 1778119357 | 21.67° C | 58% | 1017.6 hPa | 0 mm | - | 49 W/m² | - |
| 1778119055 | 22.22° C | 56% | 1017.5 hPa | 0 mm | - | 67 W/m² | - |
| 1778118752 | 22.22° C | 55% | 1017.4 hPa | 0 mm | - | 85 W/m² | - |
| 1778118448 | 22.78° C | 55% | 1017.5 hPa | 0 mm | - | 64 W/m² | - |
| 1778118145 | 22.78° C | 54% | 1017.4 hPa | 0 mm | - | 98 W/m² | - |
| 1778117842 | 22.78° C | 54% | 1017.5 hPa | 0 mm | - | 102 W/m² | - |
| 1778117539 | 23.33° C | 53% | 1017.4 hPa | 0 mm | - | 144 W/m² | - |
* Rain latest hour (hover to see other rain measurements)
** Current wind speed in m/s (hover to see current wind gust speed)